Location: Minneapolis
(45.0000°N, 93.0000°W)
Time: 05:29:45
(UTC-05:00)

ISS - Pass Details

Date: 14 March 2018
Orbit: 403 x 408 km, 51.6° (Epoch: 24 June)

Event Time Altitude Azimuth Distance (km) Brightness Sun altitude
Exits shadow 04:05:21 - 59° (ENE) 1,723 0.2 -34.3°
Enters shadow 05:03:49 -64° 272° (W) 11,934 3.6 -25.4°
Maximum altitude 05:39:02 32° 15° (NNE) 727 -2.3 -19.6°
